Погода в Южном

Россия / Самарская область     52°19′57″N   51°03′28″E
темп.,
°C
ветер,
м/с
пор.,
м/с
влажн.,
%
обл.,
%
осадки,
мм/ч
давл.,
гПа
погр.,
м
7 мая, пт
пт701:00+12ю3360100 0.0 101931
04:00+10ю2264100 0.0 101916
07:00+12ю236073 0.0 1019122
10:00+17ю4742100 0.0 10181680
13:00+19ю5738100 0.0 10182435
16:00+19ююз5736100 0.0 10172424
19:00+17зюз3550100 0.0 1016135
22:00+15зюз2353100 0.0 101756
8 мая, сб
сб801:00+14юв2255100 0.0 101719
04:00+13ю2257100 0.0 101616
07:00+14ююз125793 0.0 1017112
10:00+18ю33415 0.0 1017957
13:00+21юз443493 0.0 10162590
16:00+21ю343284 0.0 10152396
19:00+19ююв344396 0.0 101560
22:00+16юв4949100 0.0 1015175
9 мая, вс
вс901:00+16юв4853100 0.0 1015200
04:00+13юв46635 0.0 1014105
07:00+15ююв486399 0.0 1015269
10:00+20ю5745100 0.0 1015927
13:00+23ю5635100 0.0 10141993
16:00+24ю363466 0.0 10142458
19:00+21юв3649100 0.0 1014144
22:00+19ююв3651100 0.0 1015131
10 мая, пн
пн1001:00+17вюв465698 0.0 101580
04:00+15юв511575 0.0 1016199
07:00+16юв5125562 0.0 1017307
10:00+22юв7940100 0.0 1018907
13:00+24вюв6733100 0.0 10192317
16:00+24вюв563391 0.0 10192470
19:00+21в4746100 0.0 1019166
22:00+18в41055100 0.0 1021185
11 мая, вт
вт1101:00+17в41155100 0.0 1021246
04:00+16в3859100 0.0 1022153
07:00+16вюв4963100 0.0 1024268
10:00+20юв5750100 0.0 1025526
13:00+23в563570 0.0 10251916
16:00+24в673443 0.0 10242279
19:00+21в474736 0.0 1024188
22:00+17в475495 0.0 1025108